Regional Weather Roundup
Issued by NWS Raleigh/Durham, NC

Home | Current Version | Previous Version | Text Only | Print | Product List | Glossary On
Versions: 1 2 3 4 5 6 7 8 9 10 11 12 13 14 15 16 17 18 19 20 21 22 23 24 25 26 27
000
ASUS42 KRAH 201610
RWRRAH
NORTH CAROLINA WEATHER ROUNDUP
NATIONAL WEATHER SERVICE RALEIGH NC
1200 PM EDT THU JUL 20 2017

NOTE: "FAIR" INDICATES FEW OR NO CLOUDS BELOW 12,000 FEET WITH NO
SIGNIFICANT WEATHER AND/OR OBSTRUCTIONS TO VISIBILITY.

NCZ001-053-055-056-065-067-201700-
WESTERN NORTH CAROLINA

CITY           SKY/WX    TMP DP  RH WIND       PRES   REMARKS
ASHEVILLE      SUNNY     82  66  58 N9        30.21F
JEFFERSON      MOSUNNY   79  63  57 W6        30.26S
MORGANTON      SUNNY     89  61  38 W3        30.18F
HICKORY        SUNNY     88  71  57 CALM      30.13S
RUTHERFORDTON  SUNNY     87  69  53 NW5       30.14F
MOUNT AIRY     CLOUDY    90  70  51 CALM      30.15F
BOONE          SUNNY     80  57  44 W12       30.26F
$$

NCZ021-022-025-041-071-084-088-201700-
CENTRAL NORTH CAROLINA

CITY           SKY/WX    TMP DP  RH WIND       PRES   REMARKS
CHARLOTTE      MOSUNNY   90  72  55 N5        30.12S HX  97
GREENSBORO     PTSUNNY   90  69  50 VRB6      30.11R
WINSTON-SALEM  CLOUDY    90  65  43 E7        30.12S
RALEIGH-DURHAM MOSUNNY   93  67  42 N6        30.08F HX  96
FORT BRAGG     SUNNY     91  71  52 S3        30.07S HX  96
FAYETTEVILLE   MOSUNNY   93  74  53 CALM      30.07S HX 103
BURLINGTON     SUNNY     93  70  46 W7        30.09S HX  99
LAURINBURG     SUNNY     90  77  65 VRB5      30.09S HX 103
$$

NCZ011-015-027-028-043-044-047-080-103-201700-
NORTHEASTERN NORTH CAROLINA

CITY           SKY/WX    TMP DP  RH WIND       PRES   REMARKS
ROCKY MT-WILSO SUNNY     90  72  55 VRB5      30.07S HX  97
GREENVILLE     SUNNY     88  72  58 CALM      30.08S
WASHINGTON     SUNNY     88  72  58 CALM      30.08R
ELIZABETH CITY CLOUDY    88  76  67 CALM      30.06S HX  99
MANTEO         SUNNY     85  72  66 W3        30.07S
CAPE HATTERAS  MOSUNNY   87  75  67 SE7       30.09R HX  96
$$

NCZ078-087-090-091-093-098-101-201700-
SOUTHEASTERN NORTH CAROLINA

CITY           SKY/WX    TMP DP  RH WIND       PRES   REMARKS
LUMBERTON      SUNNY     89  75  63 VRB3      30.08S HX  99
GOLDSBORO      MOSUNNY   89  76  64 SW3       30.06S HX  99
KINSTON        MOSUNNY   90  72  55 CALM      30.08R HX  96
KENANSVILLE    SUNNY     88  72  58 NE3       30.09R
NEW BERN       SUNNY     89  71  55 W5        30.09R HX  95
CHERRY POINT   MOSUNNY   88  71  57 VRB3      30.09R
BEAUFORT       SUNNY     84  76  76 S8        30.09R
JACKSONVILLE   SUNNY     87  75  67 CALM      30.08R HX  96
WILMINGTON     SUNNY     87  73  62 CALM      30.09R
$$





USA.gov is the U.S. government's official web portal to all federal, state and local government web resources and services.